SUPERVIEW NEO-2 04

导读

SUPERVIEW NEO-2 04是中国自主研发的高分辨率光学遥感卫星,由上海航天技术研究院研制,于2024年11月24日在酒泉卫星发射中心通过长征二号丙运载火箭发射升空。该卫星聚焦自然资源勘探、城市安全监测、应急灾害响应与海洋事务管理等领域,可为各行业用户提供高质量遥感数据产品与多元应用服务,进一步提升中国商业遥感卫星的服务能力。

基本信息
目录编号:
62080
目录名称:
SUPERVIEW NEO-2 04
国际标识:
2024-218C
轨道中心:
EARTH
卫星名称:
SUPERVIEW NEO-2 04
卫星全名:
SUPERVIEW NEO-2 04
卫星状态:
在轨 (已飞行610 天)
发射日期:
2024-11-24 UTC
国别 :
中国 (CN)
星等 :
--
轨道信息
数据来源 国际轨道数据 AOE轨道数据
星历时间 2026-07-27T19:30:44+0800
10小时前
查看轨道信息
2026-07-25T18:00:00+0800
2天前
查看轨道信息
半长轴 6884.825km 6884.818km
偏心率 0.0001318 0.0001374
轨道倾角 97.440° 97.444°
近地点辐角 114.243° 95.402°
升交点赤经 215.249° 213.216°
平近点角 245.894° 145.264°
近地点 505.78km 505.735km
远地点 507.596km 507.627km
周期 94.754分钟 94.754分钟
每日圈数 15.197195 15.197218
详细信息
使用方式:
暂无
2D轨道图
3D轨道图
轨道高度分析图
轨道倾角分析图
轨道综合分析图
查看轨道综合分析图